Location: Minneapolis
(44.9800°N, 93.2640°W)
Time: 22:59:11
(UTC-06:00)

Iridium 96 - Visible Passes

Search period start: 23 January 2017 00:00
Search period end: 02 February 2017 00:00
Orbit: 777 x 778 km, 86.4° (Epoch: 23 January)

Date Brightness Start Highest point End Pass type
(mag) Time Alt. Az. Time Alt. Az. Time Alt. Az.
23 Jan 7.2 04:19:47 29° ESE 04:19:47 29° ESE 04:23:02 10° SE visible
23 Jan 6.5 06:00:23 26° WSW 06:00:23 26° WSW 06:03:24 10° SW visible
23 Jan 8.3 18:55:16 10° WSW 18:58:27 16° WNW 19:01:39 10° NNW visible
24 Jan 8.3 03:48:05 11° ESE 03:48:05 11° ESE 03:48:18 10° ESE visible
24 Jan 7.0 05:28:40 23° SSW 05:28:40 23° SSW 05:30:37 10° SSW visible
24 Jan 7.7 18:20:10 10° SW 18:24:35 28° WNW 18:29:03 10° NNW visible
25 Jan 7.8 04:56:47 13° S 04:56:47 13° S 04:57:19 10° S visible
25 Jan 6.7 17:45:50 10° SSW 17:50:52 48° W 17:55:56 10° N visible
26 Jan 8.6 18:57:14 10° W 18:58:50 11° WNW 19:00:27 10° NW visible
27 Jan 8.2 18:21:06 10° WSW 18:24:53 20° WNW 18:28:42 10° NNW visible
28 Jan 7.4 17:46:22 10° SW 17:51:05 34° W 17:55:50 10° NNW visible
30 Jan 8.4 18:22:28 10° WSW 18:25:14 14° WNW 18:28:01 10° NW visible
31 Jan 7.9 17:47:07 10° SW 17:51:21 25° WNW 17:55:37 10° NNW visible
